Wind_Speed
137 138 138 138 138 138 138 138 138 138 138 138 138 138 138 138 137 137 137 136 136 135 135 134 134 133 132 131 131 130 130 130 130 131 132 133 134 134 134 134 134 134 133 132 132 132 132 132 131 131 131 131 130 130 130 129 129 129 129 129 128 127 126 126 125 124 123 123 122 121 121 120 120 120 120 119 119 119 118 118 118 118 118 118 118 118
136 137 137 137 137 137 137 138 138 138 138 138 138 138 138 138 138 138 137 137 137 136 136 136 135 134 134 133 132 131 130 130 131 131 132 132 133 133 134 134 133 133 132 132 131 130 130 130 130 130 130 129 129 129 128 128 128 128 128 128 127 127 126 125 125 124 123 123 122 121 121 121 121 121 121 120 120 120 119 119 120 120 120 120 120 120
135 135 136 136 136 136 136 137 137 137 137 137 137 137 137 137 137 137 137 137 137 136 136 136 136 135 134 134 133 132 132 131 131 131 132 132 133 133 133 133 133 133 132 132 131 130 130 130 130 129 129 129 128 128 127 127 127 127 127 127 127 126 126 126 125 124 124 123 122 122 121 121 121 121 121 121 121 120 120 120 120 121 121 121 122 122
133 134 134 134 134 134 134 135 135 135 135 135 135 136 136 136 136 136 136 136 136 136 136 136 135 135 135 134 134 133 132 132 132 132 132 132 132 133 133 133 133 133 132 132 131 130 130 130 130 129 129 129 128 128 127 127 126 126 126 126 126 126 126 126 126 125 124 124 123 122 121 121 121 121 121 121 121 120 120 120 121 121 122 123 123 124
132 132 132 132 132 132 133 133 133 133 133 133 133 134 134 134 134 134 135 135 134 134 134 134 134 134 134 134 133 133 132 132 132 132 131 132 132 132 132 132 133 133 132 132 131 130 130 130 130 130 129 129 129 128 127 126 126 126 126 126 126 126 126 126 126 125 125 124 123 122 121 121 121 121 121 121 120 120 120 120 121 121 122 123 124 125
129 129 129 130 130 130 130 130 131 131 131 131 131 131 131 131 132 132 132 132 132 132 133 133 133 133 132 132 132 132 132 131 131 131 131 131 131 131 131 131 131 131 131 131 130 130 129 129 129 129 129 129 128 128 127 126 125 125 125 125 125 125 125 125 125 125 125 124 123 122 121 120 120 120 120 120 120 119 119 119 120 121 122 123 124 125
126 126 126 126 127 127 127 128 128 128 128 128 128 129 129 129 129 129 129 130 130 130 130 130 131 131 131 131 131 130 130 130 130 130 130 129 129 129 130 130 130 130 130 130 129 129 128 128 128 128 128 128 127 127 126 125 125 124 124 124 124 124 124 124 124 124 124 123 123 122 121 120 119 119 119 119 119 119 118 118 119 120 121 122 123 124
122 122 123 123 123 124 124 124 125 125 125 125 125 126 126 126 126 126 127 127 127 127 127 128 128 128 128 128 128 128 128 128 128 128 128 128 128 128 128 128 128 128 128 128 127 127 127 126 126 126 126 126 125 125 125 124 124 123 122 122 122 122 122 122 122 123 123 122 122 121 120 119 118 118 118 118 118 118 118 117 117 118 119 120 121 123
118 118 119 119 119 120 120 121 121 122 122 122 122 122 123 123 123 124 124 124 124 124 124 125 125 125 126 126 126 125 125 125 125 125 125 125 125 125 125 125 125 125 125 125 125 125 125 124 124 124 123 123 123 123 123 122 122 122 121 121 120 120 120 120 120 121 121 121 120 120 119 118 118 117 117 117 117 117 117 116 116 116 117 118 119 120
113 114 115 115 116 116 116 117 117 118 118 118 118 119 119 119 119 120 120 121 121 121 121 121 121 122 122 123 123 123 123 123 123 123 123 123 123 123 123 123 123 122 122 122 122 122 122 122 122 122 121 121 121 121 120 120 120 120 119 119 118 118 118 118 118 118 119 119 119 119 118 118 117 116 116 116 116 116 116 116 116 115 115 116 117 118
110 110 111 111 112 112 112 112 113 114 114 114 114 115 115 115 116 116 116 117 117 118 118 118 118 118 119 119 120 120 119 119 120 120 120 120 120 120 120 120 120 120 120 120 120 120 120 120 119 119 119 119 118 118 118 118 118 117 117 117 117 116 116 116 116 116 116 116 117 117 117 117 116 116 115 115 115 115 115 115 115 114 114 115 115 116
106 107 107 107 108 108 109 109 109 110 110 110 110 111 111 112 112 112 112 113 114 114 114 114 115 115 115 115 116 116 116 116 116 117 117 117 117 117 117 117 117 117 117 117 117 117 117 117 117 117 117 116 116 116 116 115 115 115 115 115 114 114 114 114 114 114 114 114 114 115 115 115 115 115 114 114 114 114 113 113 113 113 113 114 114 114
103 103 104 104 104 105 105 105 105 106 106 106 106 107 107 108 108 108 108 109 109 110 110 110 111 111 112 112 112 112 112 113 113 113 114 114 114 114 114 114 114 114 114 114 114 114 114 114 114 114 114 114 113 113 113 113 113 112 112 112 112 112 112 112 111 111 111 112 112 112 112 113 113 113 113 113 113 113 112 112 112 112 112 112 112 113
100 100 101 101 101 102 102 102 102 102 102 103 103 103 103 104 104 104 104 104 105 106 106 106 106 107 108 108 108 108 109 109 110 110 110 110 110 111 111 111 111 111 111 111 111 111 111 111 111 111 111 111 110 110 110 110 110 110 110 109 109 109 109 109 109 109 109 109 109 109 109 110 110 110 111 111 111 111 111 111 111 110 110 110 111 111
97 98 98 98 99 99 99 99 99 99 99 99 99 99 100 100 100 100 100 100 101 102 102 102 102 103 104 104 105 105 105 105 106 106 107 107 107 107 107 107 108 108 108 108 108 108 108 108 108 108 108 108 107 107 107 107 107 107 107 106 106 106 106 106 106 106 106 106 106 106 106 107 107 107 108 108 108 108 108 108 108 108 108 108 109 109
95 96 96 96 96 97 96 96 96 96 96 96 96 96 96 96 96 97 97 97 98 98 98 98 99 99 100 101 101 101 101 102 102 103 103 103 104 104 104 104 104 105 105 105 105 105 105 105 104 104 104 104 104 104 104 104 103 103 103 103 103 103 102 102 102 102 102 102 102 103 103 103 103 104 104 104 105 105 105 106 106 106 106 107 107 107
93 94 94 94 94 95 94 94 94 93 93 93 93 93 93 93 94 94 94 94 94 95 95 95 95 96 97 98 98 98 98 98 99 100 100 100 100 101 101 100 101 101 102 102 101 101 101 101 101 101 100 100 100 100 100 100 100 99 99 99 99 99 98 98 98 98 98 98 99 99 99 99 100 100 100 101 101 102 102 103 103 104 104 105 105 105
92 92 92 92 93 93 92 92 92 92 91 91 91 91 91 91 91 91 91 92 92 92 92 93 93 93 93 94 95 96 96 95 95 96 97 97 97 98 98 97 97 98 98 98 98 98 97 97 97 97 97 97 96 96 96 96 96 96 95 95 95 95 95 95 95 95 95 95 95 95 96 96 96 97 98 98 99 99 100 100 101 102 102 102 103 103
91 91 91 91 91 91 91 90 90 90 90 89 89 89 89 89 89 89 89 89 89 90 90 90 90 91 91 91 92 93 93 93 93 93 94 94 94 94 94 94 94 94 94 94 94 94 94 93 93 93 93 93 93 93 93 93 92 92 92 92 92 91 91 91 91 92 92 92 92 93 93 93 94 94 95 96 96 97 98 98 99 99 100 100 101 101
89 89 89 89 89 89 89 89 89 88 88 88 88 88 88 88 88 88 88 88 88 88 88 88 88 89 89 89 90 90 91 90 90 90 91 91 91 91 91 91 91 91 91 91 91 90 90 90 90 90 90 90 90 90 90 89 89 89 89 89 89 89 89 89 89 89 90 90 90 91 91 91 92 93 93 94 94 95 96 96 97 97 98 98 98 99
88 88 88 87 87 87 87 87 87 87 86 86 86 86 87 87 87 87 87 86 86 86 86 86 86 87 87 87 87 88 88 88 88 88 89 89 89 89 89 88 88 88 88 88 88 87 87 87 87 87 87 87 87 88 88 87 87 87 87 87 87 87 88 88 88 88 88 88 89 89 90 90 91 91 92 92 93 93 94 94 95 95 95 96 96 96
87 87 86 86 86 86 86 86 86 85 85 85 85 85 86 86 85 85 85 85 85 85 85 85 85 85 85 85 86 86 86 86 86 86 86 86 87 87 87 86 86 86 86 86 86 86 85 85 86 86 86 86 86 86 86 86 86 86 86 86 86 86 86 86 86 86 87 87 87 87 88 88 89 90 90 90 91 91 92 92 92 93 93 93 94 94
85 85 85 85 85 84 84 84 84 84 84 84 84 84 84 84 84 84 84 84 84 84 84 84 84 84 84 84 84 85 85 85 85 85 85 85 85 86 86 85 85 85 85 85 85 85 85 84 85 85 85 85 85 85 85 85 85 85 84 84 84 84 84 84 84 84 85 85 85 86 86 86 87 87 88 88 89 89 89 90 90 90 91 91 91 92
84 84 84 84 84 83 83 83 83 83 83 83 83 83 83 83 83 83 83 83 83 83 83 83 83 83 83 83 83 83 84 84 84 84 84 84 85 85 85 85 85 85 85 85 85 84 84 84 84 84 84 84 84 84 83 83 83 83 83 82 82 82 82 82 82 82 82 82 83 83 83 84 84 85 85 85 86 86 86 87 87 87 88 88 89 89
83 83 83 83 83 82 82 82 82 82 82 82 82 82 82 82 83 83 83 83 83 83 82 82 82 82 82 82 82 83 83 83 83 83 83 84 85 85 85 85 85 85 85 85 84 84 84 83 83 83 83 82 82 82 81 81 81 80 80 80 79 79 79 79 79 79 79 79 80 80 81 81 81 82 82 82 83 83 83 84 84 85 85 86 86 87
83 83 83 82 82 81 81 81 81 81 81 81 81 81 81 81 82 82 82 82 82 82 82 82 82 82 82 82 82 82 82 83 83 83 83 83 84 84 84 84 84 84 84 84 84 83 83 82 82 82 81 80 80 80 79 79 78 78 77 77 76 76 76 76 76 76 77 77 77 78 78 78 79 79 79 80 80 80 81 81 82 82 83 83 84 84
83 82 82 82 81 81 80 80 80 79 79 80 80 80 80 80 81 81 82 82 82 82 81 82 82 82 81 81 81 81 81 81 82 82 82 82 82 83 83 83 83 83 83 83 83 82 81 81 81 80 79 79 78 77 77 76 76 75 75 74 74 74 74 74 74 74 74 75 75 75 75 76 76 76 77 77 78 78 79 79 79 80 81 81 82 82
82 82 82 81 81 80 79 79 79 78 78 79 79 79 79 79 79 80 81 81 81 81 81 81 81 81 80 80 80 80 80 80 80 80 80 80 81 81 81 81 81 81 81 82 81 81 80 80 79 79 78 78 77 76 75 75 74 74 73 73 72 72 72 72 72 72 73 73 73 73 73 74 74 75 75 76 76 77 77 77 78 78 79 79 80 80
82 82 82 81 80 79 78 78 78 77 77 78 78 78 78 78 78 79 80 80 80 80 80 80 80 79 79 79 78 78 78 78 78 79 78 78 79 79 79 79 79 79 80 80 80 80 79 79 78 78 78 77 76 76 75 74 73 72 72 71 71 71 71 71 71 71 71 71 71 72 72 72 73 73 74 74 75 75 76 76 76 77 77 77 78 78
82 82 81 81 80 79 78 77 77 76 76 76 77 77 77 77 77 78 78 79 78 78 79 79 78 78 77 77 77 77 77 77 77 76 76 76 77 77 77 77 77 77 78 78 79 79 79 78 78 77 77 77 76 75 74 73 72 71 71 70 70 70 70 70 70 70 70 70 70 70 71 71 72 72 73 73 74 74 74 75 75 75 75 76 76 77
82 82 81 80 79 78 77 76 75 75 75 76 76 76 76 76 76 77 77 77 77 77 77 77 77 76 76 75 75 75 75 75 75 74 74 74 75 75 75 75 75 76 76 76 77 78 78 78 77 77 76 76 75 75 74 73 72 71 70 69 69 69 68 69 69 69 69 69 69 69 70 70 71 71 72 72 72 73 73 73 73 73 74 74 74 75
81 81 81 80 79 78 76 75 74 74 74 75 75 75 75 75 75 76 76 76 76 75 75 75 75 75 74 74 74 74 74 73 73 73 72 73 73 73 73 73 73 74 74 74 75 76 77 78 78 77 76 75 75 74 73 72 71 70 69 69 68 67 67 67 67 67 68 68 68 68 69 69 70 70 70 71 71 71 71 72 72 72 72 72 72 73
81 81 80 80 79 77 75 74 73 73 74 74 74 74 74 74 74 75 75 75 74 74 74 74 74 74 73 73 72 72 72 72 71 71 71 71 71 72 72 71 72 72 72 73 73 74 75 77 77 77 76 75 74 74 73 72 71 70 69 68 67 66 66 65 66 66 66 67 67 68 68 68 69 69 69 70 70 70 70 70 70 70 70 70 71 71
80 80 80 79 78 77 75 73 73 72 73 73 73 74 73 73 73 74 74 74 73 73 73 72 72 72 72 72 71 71 71 70 70 70 69 70 70 70 70 70 70 70 71 71 72 73 73 74 75 75 76 75 74 73 73 72 71 70 68 67 66 65 64 64 64 64 65 65 66 66 67 67 68 68 68 69 69 69 69 69 69 69 69 69 69 69
79 79 79 79 78 76 74 73 72 72 72 72 73 73 72 72 72 73 73 73 72 72 72 71 71 71 71 71 70 70 69 69 68 68 68 68 68 69 69 69 69 69 69 70 70 71 71 72 73 73 74 74 74 73 72 72 71 70 68 67 66 65 64 63 63 63 63 64 64 65 66 66 67 67 67 67 68 68 68 68 67 67 67 67 68 68
79 79 78 78 77 75 73 72 71 71 71 72 72 72 71 71 71 72 72 72 72 71 71 70 70 70 70 69 69 69 68 68 67 67 67 67 67 67 67 67 67 67 67 68 68 69 69 70 71 71 72 73 74 73 72 71 71 70 68 67 66 65 63 63 62 62 62 63 63 64 64 65 65 65 66 66 66 66 66 66 66 66 66 66 66 67
78 78 78 77 76 74 73 71 70 70 70 71 71 71 70 70 70 71 71 71 71 70 70 69 69 69 69 68 68 67 67 66 66 65 65 65 65 65 66 66 66 65 65 66 67 67 68 69 69 70 71 71 72 72 72 71 70 69 68 67 66 65 64 62 62 61 62 62 62 63 63 63 64 64 64 64 65 65 65 65 65 65 65 65 65 66
77 77 76 76 75 73 72 70 70 69 70 70 70 70 69 69 69 70 70 70 70 69 69 68 68 68 68 67 67 66 66 65 64 64 64 64 64 64 64 64 64 64 64 64 65 65 66 67 68 68 69 70 70 71 71 70 70 69 68 67 66 65 64 63 62 61 61 61 61 62 62 62 62 62 63 63 63 63 64 64 64 64 64 64 65 65
76 76 75 75 73 72 71 70 69 69 69 69 69 69 68 68 69 69 69 69 69 68 68 67 67 67 67 66 66 65 64 63 63 63 62 62 62 62 62 62 63 62 62 62 63 64 64 65 66 67 68 68 69 69 69 69 68 68 67 67 66 65 64 63 62 61 61 61 61 61 61 61 61 61 62 62 62 62 62 63 63 63 63 63 64 64
75 75 74 73 72 71 70 69 68 68 68 68 68 68 67 67 68 68 68 68 68 67 67 66 66 66 66 65 64 64 63 62 62 61 61 61 61 61 61 61 61 61 61 61 62 62 63 64 64 65 66 67 67 68 68 67 67 66 66 66 66 66 65 64 62 62 61 61 61 61 61 60 60 60 60 60 60 61 61 61 62 62 62 62 63 63
74 73 73 72 71 70 69 68 67 67 67 67 67 67 66 66 67 67 68 67 67 66 65 65 65 65 64 64 63 62 61 61 60 60 60 60 60 60 59 59 60 60 60 60 60 61 62 62 63 64 65 65 66 66 67 66 66 65 65 65 65 65 65 64 63 62 62 61 61 61 61 60 60 60 60 59 59 59 59 60 60 60 61 61 61 62
72 72 71 71 70 69 68 66 66 65 65 65 65 65 65 66 66 66 67 66 66 65 64 64 64 63 63 62 61 60 60 59 59 59 59 58 58 58 58 58 58 58 59 59 59 60 61 61 62 63 64 64 65 65 66 65 65 64 64 64 64 64 64 64 63 62 62 62 61 61 61 61 60 60 60 59 59 59 59 59 59 59 59 59 60 60
71 71 70 69 68 67 66 65 64 64 64 64 64 64 65 65 65 65 65 65 64 64 63 63 63 62 62 61 60 59 58 58 57 57 57 57 57 57 57 57 57 57 57 58 58 59 60 61 61 62 63 64 64 64 65 64 64 64 63 63 63 63 64 63 63 62 62 62 62 61 61 61 61 60 60 60 60 59 59 58 58 58 58 58 58 59
70 69 68 67 66 65 64 64 63 63 63 63 63 63 64 64 64 64 64 64 63 63 62 62 61 61 60 60 59 58 57 57 56 56 56 56 56 56 56 56 56 56 56 56 57 58 60 60 61 62 63 63 63 64 64 64 63 63 63 62 62 62 62 62 62 62 62 62 62 62 61 61 61 61 61 61 61 60 60 59 59 58 57 57 57 57
68 68 67 66 65 64 63 62 62 62 62 62 62 62 63 63 63 63 63 63 62 62 61 61 60 60 59 58 57 57 56 56 56 56 55 55 55 55 55 55 55 55 55 56 56 58 59 60 61 62 63 63 63 63 63 63 63 62 62 62 61 61 61 61 61 61 62 62 62 62 62 61 61 61 62 62 62 61 61 61 60 59 58 57 57 57
67 66 65 64 63 62 61 61 60 60 60 61 61 62 62 62 62 62 62 62 61 61 60 59 59 58 58 57 56 55 55 55 55 55 54 54 54 53 53 53 53 54 54 55 56 57 58 59 61 62 62 63 63 63 62 62 62 62 61 61 61 60 60 60 60 60 61 61 61 62 61 61 61 62 62 62 63 63 63 62 62 61 59 58 57 56
65 65 63 62 61 60 60 59 59 59 59 60 60 61 61 61 61 61 61 61 60 60 59 58 58 57 56 55 55 54 55 55 55 54 54 53 53 52 52 52 52 53 53 54 55 56 57 59 60 61 62 63 63 63 62 62 61 61 61 60 60 60 60 60 60 60 60 60 61 61 61 61 61 62 62 62 63 64 64 64 63 62 61 59 58 57
64 63 62 61 60 59 58 58 58 58 59 59 60 60 60 61 61 60 60 60 59 59 58 57 56 55 54 54 53 53 54 54 54 54 53 52 52 51 51 51 51 52 53 53 54 56 57 58 60 61 61 62 62 62 62 62 61 61 60 60 59 59 59 59 59 59 59 59 60 60 61 61 61 61 62 62 63 64 64 65 64 63 62 60 59 58
62 61 60 59 58 57 57 57 57 57 58 58 59 59 60 60 60 59 59 59 58 58 57 56 55 54 53 52 52 53 53 54 54 53 52 52 51 51 51 51 51 51 52 53 54 55 56 58 59 60 61 61 61 62 62 62 61 60 60 59 59 58 58 58 58 58 59 59 59 60 60 60 60 60 61 62 62 63 64 65 65 65 63 62 60 59
60 59 58 57 57 56 56 56 56 57 57 57 58 58 59 59 59 58 58 58 57 56 55 54 53 52 51 51 52 52 53 53 53 52 52 51 51 51 50 50 51 51 52 53 54 55 56 58 59 60 60 60 60 60 61 61 61 60 59 59 58 58 58 57 58 58 58 58 59 59 59 59 59 60 60 61 62 63 64 65 65 65 64 63 62 61
58 57 57 56 55 55 55 55 55 56 56 57 57 58 58 58 58 58 57 57 56 55 53 52 51 50 50 51 51 52 52 52 52 52 51 51 50 50 50 51 51 51 52 53 54 56 57 58 59 60 60 59 59 59 60 60 60 59 59 58 57 57 57 56 56 57 57 58 58 58 59 59 59 59 59 60 61 61 62 64 65 65 65 64 63 62
Wind_Direction
264 264 265 265 265 265 266 266 266 266 267 267 267 268 268 269 269 269 270 270 270 270 271 271 271 271 271 271 271 272 272 272 272 272 272 272 273 273 274 274 274 275 275 275 276 276 276 276 277 277 277 277 278 278 278 279 279 279 280 280 280 280 280 281 281 281 281 281 281 281 281 281 281 281 280 280 280 280 279 279 279 279 278 278 278 278
264 265 265 265 265 265 266 266 266 266 267 267 267 268 268 269 269 269 270 270 270 270 271 271 271 271 272 272 272 272 272 272 272 272 272 272 273 273 274 274 274 275 275 275 275 276 276 276 276 277 277 277 277 278 278 278 278 279 279 279 280 280 280 280 280 280 280 280 280 280 280 280 280 280 279 279 279 279 278 278 278 277 277 277 277 276
265 265 265 265 265 265 266 266 266 266 267 267 267 268 268 268 269 269 269 270 270 270 271 271 271 271 272 272 272 272 272 272 272 272 272 272 273 273 273 274 274 275 275 275 275 276 276 276 276 276 277 277 277 277 278 278 278 278 279 279 279 279 279 280 280 280 280 280 280 280 280 280 279 279 279 279 278 278 278 277 277 276 276 275 275 275
265 265 265 265 265 265 266 266 266 266 267 267 267 268 268 268 269 269 269 270 270 270 270 271 271 271 271 272 272 272 272 272 272 272 272 272 273 273 273 274 274 274 275 275 275 276 276 276 276 276 277 277 277 277 277 278 278 278 278 278 279 279 279 279 279 279 279 279 279 279 279 279 279 279 278 278 278 278 277 276 276 275 275 275 274 274
265 265 265 265 265 265 266 266 266 266 267 267 267 267 268 268 268 269 269 269 270 270 270 270 271 271 271 271 272 272 272 272 272 272 272 272 273 273 273 274 274 274 275 275 275 276 276 276 276 277 277 277 277 277 277 278 278 278 278 278 278 279 279 279 279 279 279 279 279 279 279 278 278 278 278 278 278 277 277 276 276 275 275 274 274 274
265 265 265 265 265 265 266 266 266 266 266 267 267 267 267 268 268 268 269 269 269 270 270 270 270 271 271 271 271 272 272 272 272 272 272 272 273 273 273 274 274 274 275 275 275 276 276 276 276 277 277 277 277 277 278 278 278 278 278 278 278 278 278 279 279 279 279 279 279 279 278 278 278 278 277 277 277 277 276 276 275 275 274 274 274 274
265 265 265 265 265 265 266 266 266 266 266 266 267 267 267 267 268 268 268 269 269 269 270 270 270 270 271 271 271 271 272 272 272 272 272 273 273 273 273 274 274 274 275 275 276 276 276 276 276 277 277 277 277 278 278 278 278 278 278 278 278 278 278 278 278 279 279 279 279 279 278 278 278 277 277 277 277 276 276 275 275 274 274 274 274 274
265 265 265 265 265 265 266 266 266 266 266 266 266 267 267 267 267 268 268 268 269 269 269 270 270 270 271 271 271 271 272 272 272 272 272 273 273 273 273 274 274 274 275 275 276 276 276 276 276 277 277 277 277 278 278 278 278 278 278 278 278 278 278 278 278 278 278 278 279 278 278 278 278 277 277 277 277 276 276 275 275 274 274 274 273 273
265 265 265 265 265 265 266 266 266 266 266 266 266 266 267 267 267 267 268 268 268 269 269 269 270 270 270 271 271 271 272 272 272 272 273 273 273 273 274 274 274 274 275 275 275 276 276 276 276 276 277 277 277 277 278 278 278 278 278 278 278 277 277 278 278 278 278 278 278 278 278 278 278 277 277 277 277 277 276 276 275 275 274 273 273 273
265 265 265 265 266 266 266 266 266 266 266 266 266 267 267 267 267 267 268 268 268 268 269 269 269 270 270 271 271 271 272 272 272 272 273 273 273 274 274 274 274 274 275 275 275 276 276 276 276 276 276 277 277 277 277 277 278 278 278 278 278 277 277 277 277 277 278 278 278 278 278 278 278 278 277 277 277 277 277 276 276 275 275 274 273 273
266 266 266 266 266 266 266 266 266 266 267 267 267 267 267 267 267 267 268 268 268 269 269 269 269 270 270 271 271 271 272 272 272 273 273 273 273 274 274 274 274 275 275 275 275 275 276 276 276 276 276 276 277 277 277 277 277 277 278 277 277 277 277 277 277 277 277 278 278 278 278 278 278 278 278 278 278 277 277 277 276 276 276 275 274 274
266 266 266 266 266 266 266 266 266 267 267 267 267 267 267 267 267 268 268 268 268 269 269 269 270 270 270 271 271 271 272 272 272 273 273 273 273 274 274 274 274 275 275 275 275 275 276 276 276 276 276 277 277 277 277 277 277 277 277 277 277 277 277 277 277 277 277 277 278 278 278 278 278 279 279 278 278 278 278 277 277 277 276 276 276 275
267 267 267 267 267 267 267 267 267 267 267 267 267 267 267 268 268 268 268 268 269 269 269 270 270 270 271 271 271 272 272 272 272 273 273 273 274 274 274 274 275 275 275 275 275 276 276 276 276 276 276 277 277 277 277 277 277 277 277 277 277 277 277 277 277 277 277 277 277 278 278 278 278 278 279 279 279 279 278 278 278 278 277 277 276 276
267 267 267 267 267 267 267 267 267 267 267 267 267 268 268 268 268 268 269 269 269 269 270 270 270 271 271 271 272 272 272 272 273 273 273 274 274 274 274 275 275 275 275 275 276 276 276 276 276 276 277 277 277 277 277 277 277 277 277 277 277 277 277 277 277 277 277 278 278 278 278 278 278 278 278 279 279 279 279 279 278 278 278 278 277 277
268 268 268 268 267 267 267 267 267 267 267 268 268 268 268 268 268 269 269 269 269 270 270 270 271 271 271 271 272 272 272 273 273 273 274 274 274 275 275 275 275 275 276 276 276 276 276 276 276 276 277 277 277 277 277 277 277 277 277 277 277 277 277 278 278 278 278 278 278 278 278 278 278 278 278 278 278 279 279 279 279 278 278 278 278 278
268 268 268 268 268 268 268 268 267 267 268 268 268 268 268 268 269 269 269 269 269 270 270 270 271 271 271 272 272 272 272 273 273 274 274 274 275 275 275 275 275 276 276 276 276 276 276 277 277 277 277 277 277 277 277 277 277 277 277 277 278 278 278 278 278 278 278 278 278 278 278 278 278 278 278 278 278 278 278 278 278 278 278 278 278 278
269 268 268 268 268 268 268 268 268 268 268 268 268 268 268 268 269 269 269 269 270 270 270 270 271 271 271 272 272 272 273 273 273 274 274 274 275 275 275 275 275 276 276 276 276 277 277 277 277 277 277 277 277 277 277 277 277 277 278 278 278 278 278 278 278 278 278 278 278 278 278 278 278 278 278 278 278 278 278 278 278 278 278 278 278 277
269 269 269 268 268 268 268 268 268 268 268 268 268 268 268 269 269 269 269 269 270 270 270 270 271 271 271 272 272 273 273 273 273 274 274 274 275 275 275 275 276 276 276 276 277 277 277 277 277 277 277 277 277 277 277 277 277 278 278 278 278 278 278 278 278 278 278 278 278 278 278 278 278 278 278 278 278 278 277 277 277 277 277 277 277 277
269 269 269 268 268 268 268 268 268 268 268 268 268 268 269 269 269 269 269 269 269 270 270 270 271 271 271 272 272 273 273 273 274 274 274 274 275 275 275 276 276 276 276 276 277 277 277 277 277 277 277 277 277 277 277 278 278 278 278 278 278 278 278 278 278 278 278 278 278 278 278 278 278 278 277 277 277 277 277 277 277 276 276 276 276 276
269 269 269 269 269 268 268 268 268 268 268 269 269 269 269 269 269 269 269 269 270 270 270 270 271 271 271 272 272 273 273 274 274 274 274 275 275 275 276 276 276 276 276 276 277 277 277 277 277 277 277 277 277 277 278 278 278 278 278 278 278 278 278 278 278 278 278 278 278 278 278 278 277 277 277 277 277 277 276 276 276 276 276 276 276 275
269 269 269 269 269 268 268 269 269 269 269 269 269 269 269 269 269 269 270 270 270 270 270 271 271 271 272 272 273 273 274 274 274 274 275 275 275 275 276 276 276 276 276 276 276 277 277 277 277 277 277 277 277 277 277 277 278 278 278 278 278 278 278 278 278 278 278 278 278 278 277 277 277 277 277 277 277 276 276 276 276 276 276 275 275 275
269 269 269 269 269 269 269 269 269 269 269 269 269 269 269 270 270 270 270 270 270 271 271 271 271 272 273 273 273 274 274 275 275 275 275 275 276 276 276 276 276 276 276 276 277 277 277 277 277 277 277 277 277 277 277 277 277 277 277 277 277 277 277 277 277 277 277 277 277 277 277 277 277 277 277 276 276 276 276 276 276 276 275 275 275 275
269 269 269 269 269 269 269 269 269 270 270 270 270 270 270 270 270 270 271 271 271 271 271 272 272 273 273 274 274 275 275 275 276 276 276 276 276 277 277 277 277 277 277 277 277 277 277 277 277 277 277 277 277 277 277 277 277 277 277 277 277 277 277 277 277 277 277 277 277 277 277 277 277 277 276 276 276 276 276 276 276 276 275 275 275 275
268 268 268 269 269 269 269 269 269 270 270 270 270 270 271 271 271 271 271 272 272 272 272 273 273 274 274 274 275 275 276 276 277 277 277 277 278 278 278 278 278 278 278 278 278 278 278 278 278 278 278 278 278 278 278 278 278 278 277 277 277 277 277 277 277 277 277 277 277 277 277 277 277 277 276 276 276 276 276 276 276 276 275 275 275 275
268 268 268 268 268 269 269 269 269 270 270 270 271 271 271 271 272 272 272 272 272 273 273 273 274 274 275 275 276 276 277 277 278 278 278 279 279 279 280 280 280 280 280 280 280 280 280 280 280 279 279 279 279 279 279 279 279 278 278 278 278 278 278 278 278 278 278 278 278 278 278 278 277 277 277 277 276 276 276 276 276 276 276 276 276 276
267 267 268 268 268 268 269 269 269 270 270 270 271 271 271 272 272 272 273 273 273 273 274 274 274 275 275 276 277 277 278 278 279 279 279 280 280 280 281 281 281 281 281 282 282 282 282 281 281 281 281 281 280 280 280 280 280 280 280 280 280 280 280 279 279 279 279 279 279 279 279 279 278 278 278 277 277 277 276 276 276 276 276 276 276 276
267 267 267 267 268 268 268 268 269 269 270 270 271 271 272 272 272 273 273 273 274 274 275 275 275 276 276 277 277 278 278 279 279 280 280 281 281 281 282 282 283 283 283 283 283 283 283 283 283 283 283 282 282 282 282 282 282 282 281 281 281 281 281 281 281 281 281 281 281 280 280 280 279 279 278 278 278 277 277 277 277 277 276 276 276 276
267 267 267 267 267 268 268 268 269 269 270 270 271 271 272 272 273 273 273 274 275 275 275 276 276 277 277 277 278 278 279 279 280 280 281 281 282 282 283 283 284 284 284 285 285 285 285 285 285 284 284 284 284 284 283 283 283 283 283 283 283 283 283 283 283 283 282 282 282 282 281 281 280 280 279 279 279 278 278 278 278 277 277 277 277 277
266 267 267 267 267 267 268 268 268 269 269 270 270 271 272 272 273 273 274 274 275 275 276 276 277 277 278 278 278 279 279 280 280 281 282 282 283 283 283 284 285 285 285 286 286 286 286 286 286 286 286 285 285 285 285 285 285 284 284 284 284 284 284 284 284 284 283 283 283 282 282 281 281 281 280 280 279 279 279 279 278 278 278 278 278 278
266 266 267 267 267 267 267 268 268 268 269 270 270 271 271 272 273 273 274 275 275 276 276 277 277 278 278 279 279 279 280 280 281 281 282 283 283 284 284 285 285 286 286 287 287 287 287 286 286 286 286 286 286 286 286 286 285 285 285 285 285 285 285 285 285 284 284 284 283 283 282 282 281 281 281 280 280 280 280 279 279 279 279 279 279 278
266 266 266 267 267 267 267 267 268 268 269 269 270 271 271 272 273 273 274 275 276 276 277 277 278 278 279 279 280 280 280 281 281 282 283 283 284 284 285 285 286 286 286 287 287 288 288 287 287 287 287 287 287 286 286 286 286 286 286 286 286 286 286 286 286 285 285 284 284 283 283 282 282 282 281 281 281 280 280 280 280 280 279 279 279 279
265 266 266 267 267 267 267 267 267 268 268 269 270 270 271 272 273 273 274 275 276 276 277 278 278 279 279 279 280 280 281 281 282 283 283 284 284 285 285 286 286 286 287 287 287 288 288 288 288 288 287 287 287 287 287 287 286 286 286 286 286 286 286 286 286 286 285 285 284 284 284 283 283 282 282 281 281 281 281 280 280 280 280 280 280 280
265 265 266 266 267 267 267 267 267 268 268 269 269 270 271 272 273 274 274 275 276 277 277 278 278 279 279 280 280 280 281 282 283 283 284 284 285 285 285 286 286 286 287 287 287 287 288 288 288 288 288 288 288 287 287 287 287 287 287 287 287 287 287 286 286 286 286 285 285 284 284 283 283 283 282 282 282 281 281 281 281 281 280 280 280 280
264 264 265 266 266 267 267 267 267 267 268 269 269 270 271 272 273 274 274 275 276 277 277 278 278 279 279 280 280 281 281 282 283 284 284 285 285 285 286 286 286 287 287 287 287 287 287 287 288 288 288 288 288 288 288 288 288 288 288 287 287 287 287 287 286 286 286 285 285 284 284 284 283 283 283 283 282 282 282 282 281 281 281 281 281 281
263 264 264 265 266 267 267 267 267 267 267 268 269 270 271 272 273 274 275 275 276 276 277 278 278 279 280 280 281 281 282 283 283 284 285 285 286 286 286 286 287 287 287 287 287 287 287 287 287 287 288 288 288 288 288 288 288 288 288 288 288 288 288 287 287 286 286 285 285 284 284 284 283 283 283 283 283 282 282 282 282 282 282 281 281 281
263 263 264 265 266 266 267 267 267 267 267 268 269 270 271 272 273 274 274 275 276 276 277 278 278 279 280 281 281 282 283 283 284 285 285 286 286 286 287 287 287 287 287 287 287 287 287 287 286 287 287 287 288 288 288 288 288 289 289 289 289 289 288 288 287 287 286 286 285 284 284 284 284 283 283 283 283 283 283 282 282 282 282 282 282 282
262 263 263 264 265 266 266 266 266 266 267 268 269 270 271 272 272 273 274 275 276 277 277 278 279 279 280 281 282 282 283 284 285 285 285 286 286 287 287 287 287 287 287 287 287 286 286 286 286 286 286 286 287 287 288 288 289 289 289 290 290 289 289 289 288 287 287 286 285 285 284 284 284 283 283 283 283 283 283 283 283 283 283 282 282 282
262 262 263 264 265 265 266 266 266 266 267 268 269 270 271 271 272 273 274 275 276 277 277 278 279 280 280 281 282 283 283 284 285 285 286 286 286 287 287 287 287 287 287 287 287 286 286 286 286 286 286 286 286 287 287 288 289 289 290 290 290 290 290 289 289 288 287 287 286 285 285 284 284 284 284 283 283 283 283 283 283 283 283 283 282 282
261 262 263 263 264 265 265 265 266 266 267 268 269 270 271 271 272 273 274 275 276 277 278 278 279 280 280 281 282 283 284 285 285 286 286 286 287 287 287 288 288 287 287 287 286 286 286 286 286 286 286 286 286 287 287 288 288 289 290 290 290 290 290 290 290 289 288 288 287 286 286 285 284 284 284 284 284 284 283 283 283 283 283 283 283 282
261 261 262 263 264 264 265 265 265 266 267 268 269 269 270 271 272 273 274 275 276 277 278 278 279 280 281 281 282 283 284 285 286 286 287 287 287 288 288 288 288 288 287 287 287 286 286 286 286 286 286 286 286 287 287 288 289 289 290 290 291 291 291 290 290 290 289 289 288 287 287 286 285 285 284 284 284 284 284 283 283 283 283 283 283 283
260 261 262 263 263 264 265 265 265 266 267 267 268 269 270 271 272 273 274 275 276 277 278 278 279 280 281 282 283 284 285 285 286 287 287 287 288 288 288 288 288 288 288 288 287 287 287 287 286 286 286 286 287 287 288 288 289 290 290 291 291 291 291 291 291 291 290 290 289 289 288 287 287 286 286 285 285 284 284 283 283 283 283 283 283 283
260 260 261 262 263 264 264 265 265 266 266 267 268 269 270 271 272 273 274 275 276 277 278 278 279 280 281 282 283 284 285 286 287 287 288 288 288 289 289 289 289 289 289 288 288 288 288 287 287 287 287 287 287 288 288 289 290 290 291 291 291 291 292 292 292 292 291 291 291 290 290 289 289 289 288 287 286 286 285 284 283 283 283 283 283 283
259 260 261 262 263 263 264 264 265 265 266 267 268 269 270 271 272 273 274 275 276 277 278 278 279 280 281 282 283 284 285 286 287 288 288 288 289 289 289 289 289 289 289 289 289 289 289 288 288 288 288 288 288 288 289 290 290 291 291 291 291 292 292 292 292 292 292 292 291 291 291 291 291 291 290 290 289 288 287 286 285 284 284 283 283 283
259 260 261 262 263 263 264 264 265 265 266 267 268 269 270 271 272 273 274 275 276 277 278 279 280 281 282 283 284 285 286 287 287 288 288 289 289 289 290 290 290 290 290 290 290 290 290 289 289 289 288 289 289 289 290 290 291 291 291 292 292 292 292 292 293 293 292 292 292 292 292 292 292 292 292 291 291 290 289 288 287 286 285 284 284 284
259 260 261 261 262 263 263 264 264 265 266 267 268 269 270 271 272 273 274 275 276 277 278 279 280 281 282 283 285 286 287 287 287 288 288 288 289 289 290 290 290 291 291 291 291 291 291 290 290 289 289 289 289 290 290 291 291 291 292 292 292 292 292 292 293 293 293 293 293 293 293 293 293 293 293 293 292 291 291 290 289 288 287 286 285 285
259 260 260 261 262 262 262 263 264 265 266 267 268 269 270 271 272 273 274 275 276 277 278 279 280 281 283 284 285 286 287 287 288 288 288 288 289 289 290 290 291 291 291 291 291 291 291 290 290 290 290 290 290 290 291 291 291 292 292 292 292 292 292 293 293 293 293 293 293 293 293 293 293 293 293 293 293 292 292 291 290 289 288 288 287 286
259 259 260 261 261 262 262 263 264 265 266 267 268 269 270 271 272 273 274 275 276 277 278 279 281 282 283 285 286 287 288 288 288 288 288 289 289 290 290 290 290 291 291 291 291 291 290 290 290 290 290 290 290 291 291 291 292 292 292 292 293 293 293 293 293 293 293 293 293 293 293 293 293 293 293 293 293 292 292 291 291 290 290 289 289 288
258 259 260 260 261 261 262 263 263 264 265 266 267 268 270 271 272 273 274 275 276 277 279 280 281 283 284 285 287 287 288 288 288 288 289 289 290 290 290 290 290 290 290 291 291 291 290 290 290 290 290 290 291 291 292 292 292 292 292 293 293 293 293 293 293 293 293 293 292 292 292 293 293 293 293 293 292 292 292 292 291 291 291 290 290 289
258 258 259 259 260 260 261 262 263 264 265 266 267 268 270 271 272 273 274 275 276 278 279 281 282 284 285 286 287 288 288 288 288 289 289 290 290 291 291 291 291 291 291 291 291 290 290 290 289 289 290 290 291 291 292 292 292 293 293 293 293 293 293 293 293 293 293 293 292 292 292 292 292 292 292 292 292 292 292 291 291 291 291 291 290 290
257 258 258 259 259 260 261 262 263 264 265 266 267 268 270 271 272 273 274 276 277 278 280 282 283 285 287 287 288 288 288 288 289 290 290 291 291 291 292 292 292 292 292 291 291 290 290 289 289 289 289 290 291 291 292 292 292 292 293 293 293 293 293 293 293 293 293 292 292 292 292 292 292 291 291 291 291 291 291 291 291 291 291 291 290 290
256 257 257 258 259 260 261 262 263 264 265 266 267 269 270 271 272 273 275 276 278 279 281 283 285 286 288 288 288 288 289 289 290 291 291 292 292 292 293 293 293 293 293 292 291 291 290 290 289 289 289 290 290 291 291 292 292 292 292 292 292 292 293 293 293 293 293 292 292 292 291 291 291 291 290 290 290 290 290 290 290 290 291 291 290 290
Height
10535 10534 10535 10537 10538 10538 10536 10535 10537 10538 10538 10537 10536 10537 10538 10538 10537 10537 10537 10537 10538 10537 10537 10537 10537 10538 10539 10540 10542 10543 10543 10542 10541 10540 10538 10537 10536 10535 10534 10534 10534 10534 10534 10534 10534 10533 10533 10532 10531 10530 10530 10529 10528 10528 10527 10526 10525 10523 10522 10521 10520 10520 10519 10518 10518 10517 10516 10515 10514 10513 10512 10512 10510 10509 10508 10507 10507 10505 10505 10503 10502 10502 10500 10499 10498 10497
10525 10525 10526 10527 10528 10528 10528 10527 10527 10529 10530 10528 10527 10527 10528 10529 10528 10528 10527 10528 10528 10528 10528 10528 10528 10528 10529 10530 10532 10533 10533 10533 10532 10531 10530 10528 10527 10526 10525 10525 10525 10524 10524 10524 10525 10524 10523 10523 10522 10522 10521 10520 10520 10519 10519 10518 10517 10515 10513 10512 10511 10510 10510 10509 10508 10508 10507 10507 10506 10505 10504 10503 10502 10501 10500 10499 10498 10498 10497 10496 10495 10494 10493 10492 10490 10489
10516 10517 10517 10517 10518 10520 10519 10518 10518 10520 10521 10521 10520 10519 10520 10520 10520 10518 10518 10518 10519 10520 10519 10519 10519 10519 10520 10520 10522 10522 10523 10523 10523 10522 10521 10520 10518 10517 10517 10516 10515 10515 10514 10515 10515 10515 10514 10513 10513 10512 10512 10512 10511 10511 10510 10510 10508 10507 10505 10504 10502 10501 10500 10500 10500 10499 10499 10498 10498 10497 10496 10495 10493 10492 10492 10490 10490 10490 10489 10488 10487 10486 10485 10484 10483 10482
10506 10507 10507 10507 10508 10510 10510 10510 10510 10510 10512 10512 10512 10511 10511 10511 10511 10510 10509 10510 10510 10511 10510 10510 10510 10510 10510 10510 10511 10512 10513 10513 10513 10512 10512 10511 10510 10508 10508 10507 10506 10505 10505 10505 10505 10505 10505 10504 10503 10502 10502 10502 10502 10502 10502 10501 10500 10498 10497 10495 10493 10492 10492 10490 10490 10490 10490 10490 10489 10489 10488 10487 10485 10483 10483 10482 10482 10481 10480 10480 10478 10478 10477 10475 10474 10473
10497 10497 10498 10498 10499 10500 10501 10501 10502 10502 10503 10503 10502 10502 10502 10502 10502 10501 10501 10501 10501 10502 10501 10500 10501 10501 10501 10501 10501 10502 10502 10503 10503 10503 10502 10502 10501 10500 10498 10498 10497 10496 10495 10495 10495 10496 10496 10495 10494 10493 10492 10492 10492 10492 10492 10492 10491 10490 10488 10487 10485 10483 10482 10481 10480 10480 10480 10480 10480 10480 10479 10478 10477 10475 10473 10473 10473 10472 10472 10471 10470 10468 10467 10466 10465 10464
10488 10488 10489 10489 10490 10491 10491 10492 10492 10493 10493 10493 10493 10493 10493 10493 10493 10493 10492 10492 10492 10492 10492 10492 10492 10492 10492 10492 10492 10492 10492 10493 10493 10493 10493 10492 10492 10491 10490 10489 10488 10487 10486 10486 10486 10486 10486 10486 10485 10483 10482 10482 10482 10482 10482 10482 10482 10481 10479 10478 10476 10474 10473 10472 10470 10470 10470 10470 10470 10470 10470 10469 10468 10467 10465 10464 10463 10463 10463 10462 10461 10460 10458 10457 10455 10454
10479 10480 10480 10480 10481 10482 10482 10483 10483 10484 10484 10485 10485 10485 10485 10485 10485 10485 10484 10483 10483 10483 10483 10482 10482 10482 10482 10482 10482 10482 10483 10483 10483 10483 10483 10483 10482 10482 10481 10480 10479 10478 10477 10477 10477 10477 10477 10477 10476 10475 10473 10472 10472 10471 10471 10472 10472 10471 10470 10469 10467 10465 10464 10462 10461 10460 10459 10458 10458 10459 10459 10459 10458 10457 10456 10455 10454 10453 10453 10453 10452 10450 10449 10447 10446 10444
10470 10471 10471 10472 10472 10472 10472 10473 10474 10475 10475 10475 10475 10475 10475 10476 10476 10476 10475 10475 10475 10475 10474 10473 10473 10473 10473 10473 10473 10473 10473 10473 10473 10473 10473 10473 10473 10473 10472 10472 10470 10470 10469 10468 10468 10468 10467 10467 10467 10465 10464 10463 10462 10461 10461 10461 10461 10461 10460 10460 10458 10457 10455 10453 10452 10450 10449 10448 10448 10448 10448 10448 10448 10447 10446 10445 10444 10443 10443 10443 10443 10442 10440 10438 10437 10435
10462 10462 10462 10462 10463 10463 10463 10464 10464 10465 10466 10467 10467 10467 10467 10467 10467 10467 10467 10467 10467 10466 10465 10465 10465 10464 10464 10464 10465 10465 10465 10464 10463 10464 10464 10464 10463 10463 10463 10463 10462 10462 10460 10460 10459 10458 10458 10457 10457 10456 10455 10454 10453 10452 10451 10450 10450 10450 10450 10449 10448 10447 10446 10444 10443 10441 10440 10438 10438 10437 10437 10437 10437 10437 10436 10435 10434 10433 10433 10433 10433 10432 10431 10430 10428 10426
10453 10454 10454 10454 10454 10455 10455 10455 10455 10455 10457 10458 10458 10458 10457 10458 10458 10458 10457 10457 10457 10457 10457 10457 10457 10456 10455 10456 10456 10457 10456 10455 10455 10455 10455 10455 10455 10454 10454 10453 10453 10453 10452 10452 10450 10450 10449 10448 10447 10446 10445 10445 10444 10443 10442 10441 10440 10440 10439 10439 10438 10437 10437 10435 10433 10432 10430 10429 10428 10427 10427 10427 10426 10426 10425 10425 10424 10423 10422 10422 10421 10421 10420 10420 10418 10417
10445 10445 10446 10446 10446 10447 10447 10448 10447 10447 10448 10448 10449 10448 10448 10449 10449 10449 10449 10448 10448 10448 10449 10449 10448 10448 10448 10448 10448 10447 10447 10447 10447 10446 10445 10446 10446 10445 10445 10444 10444 10443 10443 10442 10442 10441 10440 10438 10438 10437 10436 10435 10435 10434 10433 10432 10431 10430 10429 10428 10428 10427 10427 10425 10425 10423 10422 10420 10419 10418 10417 10416 10415 10415 10415 10414 10413 10412 10412 10410 10410 10409 10408 10408 10407 10407
10437 10437 10438 10438 10438 10438 10439 10439 10439 10439 10440 10440 10440 10440 10440 10440 10440 10441 10441 10441 10440 10440 10440 10440 10440 10440 10440 10440 10440 10439 10438 10438 10438 10437 10437 10437 10437 10437 10436 10435 10435 10435 10434 10433 10433 10432 10430 10430 10428 10428 10427 10427 10426 10425 10424 10423 10422 10422 10420 10419 10418 10417 10417 10416 10415 10414 10413 10412 10410 10409 10407 10406 10405 10404 10403 10403 10402 10402 10400 10400 10399 10398 10397 10397 10396 10395
10430 10430 10430 10430 10431 10431 10431 10432 10432 10432 10432 10432 10432 10432 10432 10432 10432 10433 10433 10433 10432 10432 10432 10432 10432 10432 10432 10432 10432 10431 10430 10430 10429 10428 10428 10428 10428 10428 10427 10427 10426 10425 10425 10425 10424 10423 10422 10421 10420 10419 10418 10417 10417 10416 10415 10414 10413 10412 10411 10410 10409 10408 10407 10407 10406 10405 10404 10403 10402 10400 10399 10397 10396 10395 10393 10392 10392 10390 10390 10388 10388 10387 10386 10385 10385 10383
10422 10423 10423 10423 10423 10423 10423 10424 10424 10424 10423 10423 10424 10424 10424 10424 10425 10425 10425 10425 10425 10424 10425 10425 10424 10423 10423 10423 10423 10423 10422 10422 10421 10420 10420 10420 10420 10420 10419 10418 10417 10416 10416 10416 10415 10414 10413 10412 10412 10411 10410 10408 10408 10407 10406 10405 10404 10403 10402 10401 10400 10400 10398 10398 10397 10396 10395 10394 10393 10392 10390 10389 10387 10386 10385 10383 10382 10380 10379 10378 10377 10377 10375 10375 10373 10373
10415 10416 10416 10416 10416 10416 10417 10417 10417 10417 10417 10417 10417 10417 10417 10417 10417 10417 10418 10417 10417 10417 10417 10417 10417 10416 10415 10415 10415 10415 10415 10413 10413 10412 10412 10412 10412 10411 10410 10410 10408 10407 10407 10407 10407 10405 10404 10404 10403 10403 10401 10400 10400 10398 10397 10396 10395 10394 10393 10392 10392 10391 10390 10389 10388 10387 10386 10385 10384 10383 10382 10380 10378 10377 10375 10374 10373 10372 10370 10369 10368 10367 10365 10365 10363 10362
10409 10409 10409 10409 10409 10409 10409 10409 10410 10410 10409 10409 10410 10410 10410 10410 10410 10410 10410 10410 10410 10409 10410 10410 10409 10408 10408 10407 10407 10408 10407 10406 10405 10405 10405 10404 10403 10403 10402 10402 10400 10398 10398 10398 10398 10397 10396 10395 10395 10394 10393 10392 10391 10390 10388 10388 10387 10386 10385 10384 10383 10382 10382 10380 10380 10378 10377 10376 10375 10373 10372 10371 10370 10368 10367 10365 10363 10362 10361 10360 10358 10357 10356 10355 10353 10352
10402 10403 10402 10402 10402 10402 10402 10402 10403 10403 10402 10402 10403 10403 10403 10403 10403 10403 10403 10403 10403 10402 10402 10402 10402 10402 10400 10400 10400 10400 10400 10399 10398 10397 10397 10397 10396 10395 10394 10394 10392 10390 10390 10390 10390 10389 10388 10388 10387 10386 10385 10384 10383 10382 10380 10379 10378 10378 10377 10376 10375 10375 10373 10372 10372 10370 10369 10368 10366 10365 10363 10362 10361 10359 10358 10357 10355 10353 10352 10351 10349 10348 10347 10345 10344 10343
10396 10396 10396 10396 10395 10395 10395 10395 10396 10396 10396 10396 10396 10395 10396 10396 10396 10396 10396 10396 10395 10395 10395 10395 10395 10395 10394 10393 10392 10392 10392 10392 10392 10390 10389 10389 10388 10387 10387 10387 10385 10383 10382 10382 10382 10381 10380 10380 10379 10378 10377 10376 10375 10373 10372 10372 10371 10370 10369 10368 10368 10367 10366 10365 10363 10362 10361 10360 10358 10357 10355 10354 10352 10351 10350 10348 10347 10345 10343 10342 10340 10339 10338 10337 10335 10334
10389 10389 10390 10389 10388 10388 10388 10389 10389 10388 10389 10389 10388 10388 10388 10388 10388 10389 10389 10388 10388 10388 10388 10388 10388 10387 10387 10387 10385 10384 10385 10385 10384 10383 10382 10382 10381 10380 10380 10379 10378 10377 10375 10375 10374 10374 10373 10372 10372 10370 10369 10368 10367 10366 10365 10364 10363 10363 10362 10361 10360 10359 10358 10357 10356 10355 10353 10352 10350 10349 10348 10346 10345 10343 10342 10340 10338 10337 10335 10334 10332 10331 10329 10328 10327 10325
10383 10383 10383 10383 10382 10382 10382 10382 10382 10382 10382 10382 10382 10382 10382 10382 10382 10382 10382 10382 10382 10382 10382 10382 10381 10380 10380 10380 10378 10378 10378 10378 10377 10375 10374 10374 10373 10373 10372 10372 10371 10369 10368 10368 10368 10367 10367 10365 10364 10363 10362 10360 10360 10358 10358 10357 10357 10355 10355 10353 10353 10352 10350 10349 10348 10347 10345 10344 10342 10341 10340 10338 10337 10335 10333 10332 10330 10328 10327 10325 10324 10322 10321 10320 10318 10317
10377 10376 10376 10376 10377 10376 10375 10375 10375 10376 10376 10375 10375 10375 10375 10375 10375 10375 10375 10375 10375 10375 10375 10375 10374 10373 10373 10373 10372 10371 10371 10371 10370 10368 10367 10367 10366 10365 10365 10365 10364 10363 10362 10361 10361 10360 10360 10358 10357 10356 10355 10354 10353 10352 10351 10350 10349 10348 10348 10347 10345 10344 10343 10342 10340 10339 10337 10336 10335 10333 10332 10330 10328 10327 10325 10323 10322 10320 10318 10317 10315 10314 10312 10311 10310 10308
10370 10370 10369 10370 10370 10370 10369 10369 10369 10369 10369 10369 10369 10368 10368 10368 10368 10368 10368 10368 10368 10368 10368 10368 10367 10367 10367 10367 10365 10365 10364 10364 10363 10362 10360 10360 10358 10358 10358 10358 10357 10356 10355 10354 10354 10353 10353 10352 10351 10350 10348 10347 10346 10345 10344 10343 10342 10342 10340 10339 10338 10337 10335 10334 10333 10332 10330 10328 10327 10325 10323 10322 10320 10318 10317 10315 10313 10312 10310 10308 10307 10305 10303 10302 10301 10299
10364 10363 10363 10363 10363 10363 10363 10363 10363 10363 10363 10363 10362 10362 10362 10362 10362 10362 10361 10362 10362 10362 10362 10361 10361 10361 10360 10360 10359 10358 10358 10357 10357 10355 10354 10353 10351 10350 10350 10351 10350 10348 10347 10347 10347 10347 10346 10345 10344 10343 10342 10340 10339 10338 10337 10337 10335 10334 10333 10332 10331 10330 10328 10327 10325 10324 10322 10320 10319 10317 10315 10313 10312 10310 10308 10306 10305 10303 10302 10300 10298 10297 10295 10293 10292 10290
10358 10357 10357 10357 10357 10357 10357 10357 10357 10357 10357 10357 10356 10356 10355 10355 10355 10355 10355 10355 10355 10355 10355 10355 10355 10354 10354 10354 10353 10352 10351 10350 10350 10349 10347 10346 10344 10343 10343 10343 10342 10340 10339 10339 10339 10338 10338 10337 10336 10335 10334 10333 10332 10331 10330 10329 10328 10327 10326 10325 10323 10322 10321 10319 10318 10316 10315 10313 10311 10309 10307 10305 10303 10302 10300 10298 10297 10295 10293 10292 10290 10288 10287 10285 10283 10282
10352 10352 10352 10352 10352 10352 10352 10352 10351 10351 10350 10350 10350 10350 10350 10350 10349 10349 10349 10349 10349 10349 10348 10348 10348 10348 10347 10347 10347 10346 10344 10344 10343 10342 10341 10339 10337 10336 10335 10335 10334 10333 10331 10330 10331 10331 10330 10328 10328 10327 10327 10325 10324 10323 10322 10321 10320 10319 10318 10317 10315 10314 10313 10312 10310 10308 10306 10304 10302 10300 10298 10297 10295 10293 10292 10290 10288 10287 10285 10283 10282 10280 10279 10277 10276 10274
10347 10346 10346 10346 10346 10347 10346 10346 10345 10345 10345 10345 10344 10344 10343 10343 10343 10343 10342 10342 10342 10343 10343 10342 10342 10342 10341 10342 10341 10339 10338 10337 10337 10336 10334 10332 10330 10328 10328 10328 10327 10325 10323 10322 10322 10322 10322 10320 10319 10318 10318 10317 10316 10315 10314 10313 10312 10311 10310 10308 10307 10306 10305 10303 10302 10300 10298 10296 10294 10292 10290 10288 10287 10285 10283 10282 10280 10278 10277 10275 10274 10273 10271 10270 10268 10266
10340 10340 10340 10340 10341 10341 10341 10340 10340 10340 10340 10339 10339 10338 10338 10338 10337 10337 10336 10335 10336 10337 10337 10336 10335 10335 10335 10335 10335 10333 10332 10331 10330 10329 10328 10327 10324 10322 10320 10320 10320 10318 10315 10314 10313 10313 10313 10312 10310 10310 10310 10308 10308 10307 10307 10305 10304 10303 10302 10301 10300 10298 10297 10295 10293 10292 10290 10288 10286 10284 10282 10280 10279 10277 10275 10273 10272 10270 10269 10268 10267 10265 10263 10262 10260 10258
10335 10335 10335 10335 10335 10335 10335 10335 10335 10335 10334 10334 10333 10333 10333 10333 10332 10331 10330 10330 10330 10330 10330 10330 10329 10329 10329 10328 10328 10327 10327 10325 10323 10322 10322 10320 10318 10316 10314 10313 10312 10311 10308 10307 10305 10305 10305 10303 10302 10302 10301 10300 10300 10299 10298 10297 10297 10295 10294 10293 10292 10290 10289 10287 10285 10283 10282 10280 10278 10277 10275 10273 10271 10269 10268 10266 10264 10263 10262 10260 10258 10257 10256 10254 10252 10250
10328 10328 10329 10330 10330 10330 10330 10330 10330 10329 10329 10328 10328 10328 10328 10327 10327 10325 10324 10324 10325 10324 10323 10323 10323 10323 10323 10322 10322 10321 10320 10319 10318 10317 10316 10315 10312 10310 10309 10308 10306 10304 10302 10300 10297 10297 10297 10296 10295 10294 10292 10292 10291 10291 10290 10290 10289 10288 10287 10286 10285 10283 10282 10280 10278 10277 10275 10273 10271 10269 10268 10265 10263 10262 10260 10258 10257 10255 10253 10252 10251 10250 10248 10247 10245 10243
10322 10323 10323 10324 10324 10325 10325 10325 10325 10324 10324 10323 10323 10323 10322 10322 10322 10320 10319 10319 10319 10318 10318 10317 10317 10317 10317 10317 10315 10315 10314 10313 10312 10312 10310 10308 10306 10304 10303 10302 10300 10298 10297 10293 10291 10288 10287 10288 10288 10287 10285 10284 10283 10283 10282 10282 10282 10281 10280 10279 10278 10277 10275 10273 10271 10269 10268 10266 10264 10262 10260 10258 10257 10255 10253 10251 10249 10248 10247 10245 10244 10243 10241 10240 10238 10236
10317 10317 10317 10318 10318 10320 10320 10320 10320 10319 10318 10318 10318 10317 10317 10317 10316 10315 10315 10314 10313 10313 10312 10312 10311 10311 10311 10310 10310 10308 10307 10307 10307 10306 10305 10303 10300 10298 10298 10297 10294 10292 10291 10288 10285 10282 10279 10278 10279 10280 10279 10277 10276 10275 10275 10275 10274 10273 10273 10272 10271 10270 10268 10267 10265 10263 10261 10259 10257 10255 10253 10252 10250 10247 10245 10244 10242 10241 10240 10238 10237 10236 10234 10233 10231 10229
10311 10312 10312 10312 10313 10314 10315 10315 10314 10314 10313 10313 10313 10312 10312 10312 10311 10310 10310 10309 10308 10308 10307 10307 10306 10305 10305 10305 10304 10303 10302 10301 10300 10300 10300 10297 10295 10293 10293 10292 10289 10287 10285 10283 10281 10277 10273 10271 10270 10270 10271 10270 10269 10268 10268 10268 10267 10267 10266 10265 10264 10263 10262 10260 10258 10257 10255 10253 10251 10248 10247 10245 10242 10240 10238 10237 10235 10234 10233 10232 10230 10229 10228 10226 10224 10223
10305 10305 10306 10307 10307 10308 10309 10309 10309 10309 10308 10308 10307 10307 10307 10307 10306 10305 10305 10304 10303 10303 10302 10301 10300 10300 10299 10299 10298 10298 10297 10296 10295 10295 10293 10292 10290 10288 10287 10286 10284 10282 10280 10278 10276 10273 10270 10266 10263 10262 10262 10262 10262 10262 10261 10260 10260 10260 10259 10258 10257 10257 10256 10255 10253 10251 10248 10247 10244 10242 10240 10238 10236 10234 10232 10230 10229 10227 10226 10225 10224 10223 10222 10220 10218 10217
10300 10300 10300 10301 10302 10302 10303 10304 10304 10303 10303 10303 10302 10302 10302 10301 10300 10300 10299 10299 10298 10298 10297 10297 10295 10295 10293 10293 10293 10292 10292 10291 10290 10289 10288 10287 10284 10282 10281 10280 10278 10277 10274 10272 10270 10268 10265 10262 10259 10257 10255 10254 10254 10254 10253 10253 10252 10252 10252 10252 10251 10250 10249 10248 10247 10245 10243 10241 10238 10236 10234 10232 10230 10228 10226 10224 10222 10221 10220 10218 10217 10217 10215 10214 10212 10210
10294 10295 10295 10295 10296 10297 10298 10298 10298 10298 10298 10297 10297 10297 10297 10296 10295 10295 10294 10293 10293 10293 10292 10292 10291 10290 10289 10288 10287 10287 10286 10286 10285 10285 10283 10281 10279 10277 10275 10274 10273 10271 10269 10267 10264 10262 10260 10257 10255 10253 10250 10247 10247 10247 10247 10246 10245 10245 10245 10245 10244 10243 10243 10242 10241 10239 10237 10235 10233 10230 10228 10226 10224 10222 10220 10218 10217 10215 10213 10212 10211 10210 10209 10208 10206 10204
10288 10289 10290 10290 10291 10292 10292 10293 10293 10293 10293 10292 10292 10292 10292 10291 10290 10290 10289 10288 10288 10287 10287 10287 10286 10285 10284 10283 10282 10282 10280 10280 10280 10279 10278 10276 10274 10272 10270 10268 10267 10266 10263 10261 10258 10257 10254 10252 10250 10248 10245 10243 10240 10239 10239 10239 10239 10238 10238 10238 10237 10237 10236 10236 10235 10233 10231 10228 10227 10225 10222 10220 10218 10216 10214 10213 10211 10209 10208 10207 10205 10204 10203 10202 10200 10198
10283 10283 10284 10285 10285 10286 10287 10288 10288 10288 10288 10287 10287 10287 10287 10286 10285 10285 10284 10283 10283 10282 10282 10281 10280 10280 10279 10278 10278 10277 10276 10275 10275 10273 10272 10271 10269 10267 10265 10263 10262 10260 10258 10256 10253 10251 10249 10247 10244 10242 10240 10238 10236 10234 10232 10232 10232 10232 10231 10231 10230 10230 10229 10229 10228 10227 10225 10223 10220 10218 10217 10215 10213 10211 10209 10207 10205 10204 10202 10201 10200 10198 10197 10196 10194 10193
10278 10278 10278 10280 10280 10281 10282 10282 10283 10283 10283 10282 10282 10282 10282 10281 10280 10280 10279 10278 10278 10277 10277 10276 10275 10275 10274 10273 10273 10272 10272 10270 10270 10268 10267 10266 10264 10262 10260 10258 10256 10255 10253 10251 10248 10246 10243 10241 10238 10237 10234 10233 10231 10229 10228 10227 10226 10225 10225 10224 10223 10223 10222 10222 10222 10220 10219 10217 10215 10213 10211 10209 10207 10205 10203 10202 10200 10198 10197 10195 10194 10193 10192 10190 10188 10187
10272 10273 10273 10274 10275 10276 10277 10277 10277 10278 10278 10278 10277 10277 10277 10276 10275 10275 10274 10273 10273 10272 10272 10271 10270 10270 10269 10268 10268 10267 10267 10265 10265 10263 10262 10261 10259 10257 10255 10253 10251 10249 10248 10246 10243 10241 10238 10236 10233 10232 10229 10227 10225 10223 10222 10222 10221 10220 10218 10217 10217 10216 10215 10215 10215 10214 10212 10211 10208 10207 10205 10203 10202 10200 10198 10196 10195 10193 10192 10190 10188 10187 10186 10185 10183 10182
10267 10268 10268 10269 10270 10271 10272 10272 10272 10273 10273 10273 10272 10272 10272 10271 10270 10270 10269 10268 10268 10267 10267 10266 10265 10265 10264 10263 10263 10262 10262 10261 10260 10258 10257 10255 10254 10252 10250 10248 10246 10243 10242 10240 10238 10236 10233 10231 10228 10227 10225 10222 10220 10218 10217 10216 10215 10215 10213 10212 10210 10208 10208 10208 10208 10207 10206 10205 10203 10201 10199 10197 10196 10194 10192 10190 10189 10188 10186 10185 10183 10182 10181 10179 10177 10176
10262 10262 10263 10264 10265 10266 10267 10267 10267 10268 10268 10268 10267 10267 10267 10266 10265 10265 10264 10263 10263 10262 10262 10261 10260 10260 10259 10258 10258 10258 10257 10256 10255 10253 10252 10250 10249 10247 10245 10243 10241 10238 10237 10234 10232 10230 10228 10226 10223 10221 10219 10217 10215 10213 10212 10210 10210 10210 10208 10207 10204 10203 10202 10201 10201 10200 10199 10198 10197 10195 10193 10191 10190 10188 10187 10185 10183 10182 10181 10179 10177 10176 10175 10174 10172 10170
10257 10257 10258 10259 10260 10261 10262 10262 10263 10263 10263 10263 10262 10262 10262 10261 10260 10260 10259 10258 10258 10257 10257 10256 10255 10255 10253 10253 10253 10253 10252 10251 10250 10248 10247 10245 10244 10242 10240 10238 10236 10233 10232 10229 10227 10224 10223 10220 10218 10216 10214 10212 10210 10208 10207 10205 10205 10204 10203 10202 10199 10197 10196 10195 10195 10194 10193 10191 10190 10188 10187 10185 10183 10182 10180 10178 10177 10175 10175 10173 10172 10170 10169 10168 10167 10165
10252 10252 10253 10254 10255 10256 10257 10257 10258 10258 10258 10258 10257 10257 10257 10256 10255 10255 10254 10253 10253 10252 10252 10252 10250 10250 10248 10248 10248 10248 10247 10247 10245 10243 10242 10240 10239 10237 10235 10233 10231 10229 10227 10224 10221 10218 10217 10215 10213 10211 10208 10207 10205 10203 10202 10200 10200 10198 10198 10197 10195 10193 10190 10189 10188 10188 10187 10185 10183 10182 10180 10178 10177 10175 10173 10172 10170 10168 10167 10166 10165 10165 10163 10162 10161 10160
10247 10247 10248 10249 10250 10251 10252 10252 10252 10253 10253 10253 10252 10252 10252 10251 10250 10250 10249 10248 10248 10247 10247 10247 10246 10245 10244 10243 10243 10242 10242 10241 10240 10239 10237 10236 10234 10232 10230 10228 10226 10224 10222 10220 10217 10213 10211 10209 10207 10205 10204 10202 10200 10198 10197 10196 10195 10193 10192 10191 10190 10188 10186 10184 10183 10182 10180 10179 10177 10176 10175 10173 10171 10169 10167 10165 10163 10161 10160 10159 10158 10157 10157 10157 10155 10154
10242 10242 10243 10244 10245 10246 10247 10247 10247 10248 10248 10248 10247 10247 10247 10246 10245 10245 10244 10243 10243 10242 10242 10242 10241 10240 10239 10238 10238 10238 10237 10236 10235 10234 10233 10231 10230 10228 10226 10223 10222 10220 10217 10215 10212 10210 10207 10204 10202 10200 10198 10197 10195 10194 10193 10192 10190 10188 10187 10185 10185 10183 10182 10180 10178 10177 10175 10173 10172 10170 10168 10167 10165 10163 10161 10158 10157 10155 10153 10152 10150 10150 10150 10150 10149 10148
10237 10238 10238 10240 10240 10242 10242 10242 10243 10243 10243 10243 10242 10242 10242 10241 10241 10240 10239 10238 10238 10238 10237 10237 10237 10236 10235 10234 10233 10233 10232 10230 10230 10228 10227 10226 10225 10223 10222 10220 10217 10215 10213 10210 10208 10205 10203 10200 10197 10195 10193 10192 10190 10189 10188 10187 10185 10183 10182 10181 10180 10178 10177 10175 10173 10172 10170 10168 10166 10165 10163 10162 10160 10158 10155 10153 10151 10148 10146 10145 10143 10143 10143 10143 10142 10142
10232 10233 10234 10235 10236 10237 10237 10238 10238 10238 10238 10238 10237 10237 10237 10237 10236 10235 10235 10234 10233 10233 10233 10232 10232 10232 10230 10230 10229 10228 10227 10225 10224 10223 10222 10221 10220 10218 10217 10215 10213 10211 10208 10206 10203 10201 10198 10195 10193 10190 10188 10187 10185 10183 10183 10182 10180 10178 10177 10176 10175 10173 10172 10170 10169 10167 10166 10163 10162 10160 10158 10157 10155 10153 10151 10148 10145 10143 10140 10138 10137 10136 10135 10135 10135 10135
10227 10228 10229 10230 10231 10232 10232 10233 10233 10233 10233 10233 10233 10232 10232 10232 10231 10230 10230 10230 10229 10228 10228 10228 10227 10227 10226 10225 10224 10223 10222 10220 10219 10218 10217 10216 10215 10213 10212 10210 10208 10207 10204 10202 10200 10197 10194 10191 10188 10187 10184 10182 10180 10178 10177 10176 10175 10174 10173 10172 10170 10169 10167 10165 10164 10162 10161 10159 10157 10155 10153 10152 10150 10148 10146 10143 10140 10137 10134 10132 10130 10129 10128 10128 10128 10128
10222 10223 10225 10225 10227 10227 10227 10228 10228 10228 10228 10228 10228 10228 10227 10227 10227 10226 10225 10225 10225 10224 10224 10223 10223 10222 10221 10220 10219 10218 10217 10215 10214 10213 10212 10211 10210 10208 10207 10205 10203 10202 10199 10197 10195 10192 10190 10187 10185 10182 10180 10178 10176 10174 10172 10171 10170 10168 10168 10167 10166 10165 10163 10161 10160 10158 10156 10154 10152 10150 10148 10147 10145 10143 10141 10138 10136 10133 10130 10126 10123 10122 10122 10122 10122 10121
10218 10219 10220 10221 10222 10222 10223 10223 10223 10224 10223 10223 10223 10223 10222 10222 10222 10222 10221 10220 10220 10220 10219 10219 10218 10217 10217 10215 10214 10213 10212 10210 10209 10208 10207 10206 10205 10203 10202 10200 10198 10197 10194 10192 10190 10188 10185 10182 10180 10178 10177 10175 10173 10170 10168 10166 10165 10164 10163 10162 10162 10160 10158 10157 10155 10153 10152 10149 10147 10145 10143 10142 10140 10138 10137 10134 10132 10128 10125 10122 10118 10115 10115 10114 10115 10114
10213 10215 10215 10217 10217 10218 10218 10218 10219 10219 10219 10219 10218 10218 10218 10217 10217 10217 10217 10216 10216 10215 10215 10215 10214 10213 10212 10210 10209 10208 10207 10206 10204 10203 10202 10201 10200 10198 10197 10195 10193 10192 10189 10187 10185 10183 10180 10177 10174 10172 10171 10171 10170 10168 10165 10162 10160 10160 10158 10158 10157 10156 10154 10153 10152 10149 10147 10145 10142 10140 10138 10136 10135 10133 10132 10130 10127 10124 10122 10118 10113 10110 10108 10108 10107 10107